IW9GDC-13 Weather Reports


Display with metric or nautical units.
time (UTC)temp
F
wind
direction
speed
MPH
gust
MPH
rain 1hr
in
rain 24hr
in
rain mn
in
humidity
%
barometer
mb
20260509031017 66 225 4.0 9.0 0.00 0.00 0.00 72 1015.6
20260509030517 65 225 1.0 2.0 0.00 0.00 0.00 75 1015.5
20260509030037 65 225 1.0 2.0 0.00 0.00 0.00 74 1015.4
20260509025517 65 248 1.0 3.0 0.00 0.00 0.00 74 1015.4
20260509025017 66 90 1.0 4.0 0.00 0.00 0.00 73 1015.2
20260509024517 66 45 4.0 14.0 0.00 0.00 0.00 73 1015.3
20260509024017 65 0 5.0 11.0 0.00 0.00 0.00 73 1015.2
20260509023517 64 45 2.0 5.0 0.00 0.00 0.00 76 1015.3
20260509023017 64 248 1.0 4.0 0.00 0.00 0.00 77 1015.3
20260509022517 63 293 2.0 5.0 0.00 0.00 0.00 78 1015.2
20260509022057 63 293 1.0 5.0 0.00 0.00 0.00 77 1015.3
20260509021537 63 293 3.0 5.0 0.00 0.00 0.00 77 1015.2
20260509021017 63 0.0 2.0 0.00 0.00 0.00 76 1015.2
20260509020517 63 0.0 2.0 0.00 0.00 0.00 76 1015.3
20260509020017 64 293 1.0 2.0 0.00 0.00 0.00 76 1015.3
20260509015517 64 0.0 1.0 0.00 0.00 0.00 76 1015.4
20260509015037 64 315 1.0 2.0 0.00 0.00 0.00 75 1015.4
20260509014517 64 248 1.0 3.0 0.00 0.00 0.00 74 1015.3
20260509014017 65 0.0 2.0 0.00 0.00 0.00 74 1015.3
20260509013517 65 68 2.0 4.0 0.00 0.00 0.00 74 1015.2
20260509013016 65 68 2.0 4.0 0.00 0.00 0.00 73 1015.0
20260509012517 65 293 2.0 4.0 0.00 0.00 0.00 72 1015.1
20260509012017 65 113 1.0 2.0 0.00 0.00 0.00 73 1015.0
20260509011537 65 113 1.0 2.0 0.00 0.00 0.00 73 1015.0
20260509011016 65 0.0 2.0 0.00 0.00 0.00 73 1015.1
20260509010516 65 270 3.0 7.0 0.00 0.00 0.00 72 1015.1
20260509010016 65 23 2.0 4.0 0.00 0.00 0.00 71 1015.0
20260509005516 65 0 2.0 4.0 0.00 0.00 0.00 73 1015.1
20260509005016 65 338 1.0 3.0 0.00 0.00 0.00 73 1015.2
20260509004516 64 315 1.0 2.0 0.00 0.00 0.00 74 1015.1
20260509004017 64 0.0 2.0 0.00 0.00 0.00 73 1015.2
20260509003517 65 68 1.0 3.0 0.00 0.00 0.00 73 1015.2
20260509003036 64 293 1.0 2.0 0.00 0.00 0.00 73 1015.3
20260509002517 64 293 1.0 2.0 0.00 0.00 0.00 72 1015.3
20260509002016 65 315 1.0 1.0 0.00 0.00 0.00 72 1015.4
20260509001516 65 315 1.0 2.0 0.00 0.00 0.00 71 1015.4
20260509001037 65 338 1.0 2.0 0.00 0.00 0.00 72 1015.3
20260509000516 66 315 1.0 2.0 0.00 0.00 0.00 71 1015.3
20260509000017 66 315 1.0 2.0 0.00 0.00 0.00 71 1015.2
20260508235516 66 338 2.0 4.0 0.00 0.00 0.00 70 1015.1
20260508235017 66 0 3.0 9.0 0.00 0.00 0.00 70 1015.1
20260508234516 66 45 5.0 10.0 0.00 0.00 0.00 70 1015.1
20260508234017 67 68 5.0 12.0 0.00 0.00 0.00 68 1015.2
20260508233516 66 270 2.0 3.0 0.00 0.00 0.00 66 1015.1
20260508233016 66 203 2.0 4.0 0.00 0.00 0.00 67 1015.3
20260508232517 67 225 3.0 8.0 0.00 0.00 0.00 65 1015.2
20260508232056 67 203 1.0 9.0 0.00 0.00 0.00 64 1015.3
20260508231536 67 158 1.0 4.0 0.00 0.00 0.00 64 1015.3
20260508231016 68 135 3.0 10.0 0.00 0.00 0.00 63 1015.3
20260508230517 67 203 5.0 12.0 0.00 0.00 0.00 64 1015.4
20260508230017 67 248 5.0 13.0 0.00 0.00 0.00 64 1015.5
20260508225536 67 0 3.0 5.0 0.00 0.00 0.00 64 1015.5
20260508225016 67 0 5.0 13.0 0.00 0.00 0.00 63 1015.5
20260508224516 67 0 4.0 6.0 0.00 0.00 0.00 63 1015.5
20260508224016 67 0 5.0 11.0 0.00 0.00 0.00 62 1015.3
20260508223517 67 0 6.0 11.0 0.00 0.00 0.00 63 1015.3
20260508223016 66 338 3.0 6.0 0.00 0.00 0.00 67 1015.4
20260508222556 67 338 3.0 9.0 0.00 0.00 0.00 66 1015.4
20260508222016 67 315 3.0 6.0 0.00 0.00 0.00 64 1015.2
20260508221516 67 338 3.0 5.0 0.00 0.00 0.00 65 1015.3
20260508221016 67 0 2.0 6.0 0.00 0.00 0.00 66 1015.3
20260508220516 67 293 3.0 6.0 0.00 0.00 0.00 64 1015.2
20260508220016 67 293 4.0 6.0 0.00 0.00 0.00 65 1015.3
20260508215517 67 315 5.0 9.0 0.00 0.00 0.00 68 1015.3
20260508215016 67 338 2.0 5.0 0.00 0.00 0.00 66 1015.2
20260508214516 67 338 4.0 6.0 0.00 0.00 0.00 67 1015.1
20260508214016 66 338 2.0 3.0 0.00 0.00 0.00 68 1015.2
20260508213518 65 315 2.0 3.0 0.00 0.00 0.00 70 1015.2
20260508213018 65 315 1.0 3.0 0.00 0.00 0.00 73 1015.2
20260508212518 65 315 2.0 3.0 0.00 0.00 0.00 73 1015.2
20260508212018 65 315 1.0 2.0 0.00 0.00 0.00 73 1015.1
20260508211518 65 293 2.0 3.0 0.00 0.00 0.00 73 1015.1
20260508211018 65 293 2.0 3.0 0.00 0.00 0.00 73 1015.1
20260508210518 65 293 1.0 2.0 0.00 0.00 0.00 73 1015.1
20260508210018 65 293 2.0 3.0 0.00 0.00 0.00 73 1015.1
20260508205520 65 315 1.0 2.0 0.00 0.00 0.00 72 1015.2
20260508205038 66 293 2.0 3.0 0.00 0.00 0.00 72 1015.0
20260508204518 66 293 1.0 2.0 0.00 0.00 0.00 72 1015.1
20260508204038 66 315 1.0 2.0 0.00 0.00 0.00 72 1015.1
20260508203518 66 270 1.0 2.0 0.00 0.00 0.00 71 1015.2
20260508203038 67 0.0 1.0 0.00 0.00 0.00 71 1015.3
20260508202538 67 0.0 2.0 0.00 0.00 0.00 71 1015.2
20260508202018 67 315 2.0 4.0 0.00 0.00 0.00 71 1015.1
20260508201518 67 315 2.0 6.0 0.00 0.00 0.00 70 1015.3
20260508201018 67 315 2.0 3.0 0.00 0.00 0.00 70 1015.0
20260508200518 67 338 1.0 3.0 0.00 0.00 0.00 70 1015.1
20260508200018 67 315 1.0 2.0 0.00 0.00 0.00 70 1015.0
20260508195538 67 315 1.0 2.0 0.00 0.00 0.00 70 1014.8
20260508195017 67 338 1.0 3.0 0.00 0.00 0.00 70 1014.8
20260508194517 67 0.0 2.0 0.00 0.00 0.00 70 1014.8
20260508194017 67 338 1.0 2.0 0.00 0.00 0.00 70 1014.8
20260508193538 67 315 1.0 2.0 0.00 0.00 0.00 70 1014.7
20260508193018 67 315 2.0 4.0 0.00 0.00 0.00 70 1014.6
20260508192538 68 113 1.0 4.0 0.00 0.00 0.00 70 1014.6
20260508192018 68 0.0 2.0 0.00 0.00 0.00 69 1014.6
20260508191518 68 180 1.0 2.0 0.00 0.00 0.00 69 1014.6
20260508191017 68 293 1.0 5.0 0.00 0.00 0.00 69 1014.3
20260508190518 68 68 2.0 6.0 0.00 0.00 0.00 69 1014.3
20260508190018 68 90 2.0 5.0 0.00 0.00 0.00 68 1014.2
20260508185538 68 45 3.0 6.0 0.00 0.00 0.00 68 1014.1
20260508185017 68 315 1.0 4.0 0.00 0.00 0.00 67 1014.0
20260508184517 68 68 2.0 6.0 0.00 0.00 0.00 67 1014.1
20260508184017 68 90 3.0 7.0 0.00 0.00 0.00 67 1014.0
20260508183518 68 90 1.0 3.0 0.00 0.00 0.00 66 1014.0
20260508183017 68 338 2.0 5.0 0.00 0.00 0.00 66 1013.9
20260508182517 69 90 3.0 9.0 0.00 0.00 0.00 65 1013.8
20260508182038 69 68 3.0 12.0 0.00 0.00 0.00 64 1013.6
20260508181517 69 68 2.0 5.0 0.00 0.00 0.00 62 1013.5
20260508181018 69 68 1.0 3.0 0.00 0.00 0.00 64 1013.5
20260508180517 69 315 2.0 4.0 0.00 0.00 0.00 63 1013.5
20260508180037 69 315 2.0 5.0 0.00 0.00 0.00 63 1013.3
20260508175517 69 315 2.0 6.0 0.00 0.00 0.00 63 1013.4
20260508175038 69 45 3.0 6.0 0.00 0.00 0.00 63 1013.3
20260508174518 69 68 4.0 7.0 0.00 0.00 0.00 64 1013.2
20260508174018 70 113 3.0 6.0 0.00 0.00 0.00 64 1013.2
20260508173537 70 90 4.0 6.0 0.00 0.00 0.00 63 1013.1
20260508173117 70 68 5.0 9.0 0.00 0.00 0.00 63 1013.0
20260508172637 71 68 3.0 7.0 0.00 0.00 0.00 59 1012.9
20260508172017 71 45 3.0 6.0 0.00 0.00 0.00 58 1012.9
20260508171517 71 68 2.0 4.0 0.00 0.00 0.00 59 1012.7
20260508171017 72 68 5.0 9.0 0.00 0.00 0.00 59 1012.7
20260508170517 72 68 3.0 9.0 0.00 0.00 0.00 58 1012.6
20260508170017 72 270 2.0 4.0 0.00 0.00 0.00 57 1012.5
20260508165517 73 225 4.0 10.0 0.00 0.00 0.00 56 1012.3
20260508165017 73 90 2.0 4.0 0.00 0.00 0.00 54 1012.4
20260508164517 73 68 2.0 5.0 0.00 0.00 0.00 54 1012.5
20260508164017 74 135 4.0 9.0 0.00 0.00 0.00 54 1012.6
20260508163517 74 135 5.0 9.0 0.00 0.00 0.00 54 1012.5
20260508163017 74 135 2.0 4.0 0.00 0.00 0.00 54 1012.4
20260508162517 74 113 2.0 5.0 0.00 0.00 0.00 54 1012.4
20260508162017 74 135 1.0 3.0 0.00 0.00 0.00 53 1012.6
20260508161517 74 203 3.0 6.0 0.00 0.00 0.00 54 1012.6
20260508161017 75 203 4.0 7.0 0.00 0.00 0.00 53 1012.6
20260508160537 75 158 3.0 7.0 0.00 0.00 0.00 52 1012.5
20260508160017 76 158 2.0 5.0 0.00 0.00 0.00 51 1012.5
20260508155517 76 0 1.0 2.0 0.00 0.00 0.00 51 1012.5
20260508155017 75 338 2.0 5.0 0.00 0.00 0.00 50 1012.5
20260508154517 75 45 2.0 4.0 0.00 0.00 0.00 50 1012.5
20260508154017 75 45 2.0 5.0 0.00 0.00 0.00 50 1012.5
20260508153517 76 68 4.0 9.0 0.00 0.00 0.00 50 1012.5
20260508153037 76 90 2.0 7.0 0.00 0.00 0.00 49 1012.5
20260508152517 76 180 2.0 5.0 0.00 0.00 0.00 49 1012.5
20260508152017 76 135 2.0 6.0 0.00 0.00 0.00 50 1012.4
20260508151517 75 68 2.0 6.0 0.00 0.00 0.00 50 1012.3
20260508151017 75 248 2.0 5.0 0.00 0.00 0.00 51 1012.3
20260508150537 74 338 4.0 12.0 0.00 0.00 0.00 52 1012.2
20260508150018 74 315 7.0 12.0 0.00 0.00 0.00 52 1012.4
20260508145517 74 315 7.0 17.0 0.00 0.00 0.00 52 1012.4
20260508145018 74 315 9.0 18.0 0.00 0.00 0.00 52 1012.3
20260508144517 74 315 10.0 22.0 0.00 0.00 0.00 52 1012.4
20260508144017 74 338 7.0 16.0 0.00 0.00 0.00 51 1012.5
20260508143517 74 315 6.0 15.0 0.00 0.00 0.00 51 1012.6
20260508143017 74 315 5.0 12.0 0.00 0.00 0.00 52 1012.5
20260508142517 75 315 7.0 17.0 0.00 0.00 0.00 52 1012.5
20260508142017 75 338 3.0 14.0 0.00 0.00 0.00 51 1012.6
20260508141517 75 270 7.0 13.0 0.00 0.00 0.00 51 1012.6
20260508141037 76 225 3.0 9.0 0.00 0.00 0.00 52 1012.6
20260508140517 75 315 5.0 15.0 0.00 0.00 0.00 51 1012.5
20260508140017 76 293 7.0 14.0 0.00 0.00 0.00 51 1012.6
20260508135517 76 338 4.0 11.0 0.00 0.00 0.00 51 1012.7
20260508135017 76 338 5.0 12.0 0.00 0.00 0.00 51 1012.7
20260508134517 76 293 7.0 18.0 0.00 0.00 0.00 50 1012.7
20260508134017 76 270 6.0 16.0 0.00 0.00 0.00 50 1012.8
20260508133517 76 315 7.0 17.0 0.00 0.00 0.00 51 1012.7
20260508133017 76 293 9.0 20.0 0.00 0.00 0.00 51 1012.7
20260508132517 76 270 7.0 17.0 0.00 0.00 0.00 51 1012.6
20260508132017 76 270 8.0 13.0 0.00 0.00 0.00 50 1012.6
20260508131517 76 315 6.0 14.0 0.00 0.00 0.00 50 1012.7
20260508131017 76 270 5.0 12.0 0.00 0.00 0.00 50 1012.7
20260508130516 76 315 6.0 11.0 0.00 0.00 0.00 51 1012.6
20260508130017 75 315 5.0 11.0 0.00 0.00 0.00 53 1012.5
20260508125517 75 270 8.0 16.0 0.00 0.00 0.00 51 1012.6
20260508125016 76 270 6.0 12.0 0.00 0.00 0.00 52 1012.6
20260508124516 76 270 9.0 18.0 0.00 0.00 0.00 52 1012.5
20260508124016 75 45 6.0 14.0 0.00 0.00 0.00 53 1012.6
20260508123517 75 23 7.0 12.0 0.00 0.00 0.00 53 1012.5
20260508123017 74 248 6.0 12.0 0.00 0.00 0.00 54 1012.5
20260508122517 74 68 7.0 16.0 0.00 0.00 0.00 54 1012.4
20260508122157 75 338 5.0 10.0 0.00 0.00 0.00 55 1012.2
20260508121537 75 68 5.0 12.0 0.00 0.00 0.00 55 1012.3
20260508121016 75 68 5.0 13.0 0.00 0.00 0.00 56 1012.3
20260508120517 75 68 7.0 12.0 0.00 0.00 0.00 54 1012.3
20260508120016 76 68 4.0 10.0 0.00 0.00 0.00 54 1012.3
20260508115517 76 23 3.0 11.0 0.00 0.00 0.00 54 1012.4
20260508115036 76 113 3.0 6.0 0.00 0.00 0.00 54 1012.2
20260508114517 75 293 4.0 12.0 0.00 0.00 0.00 55 1012.2
20260508114017 76 315 5.0 11.0 0.00 0.00 0.00 55 1012.2
20260508113516 76 0 4.0 13.0 0.00 0.00 0.00 54 1012.2
20260508113016 76 270 5.0 11.0 0.00 0.00 0.00 54 1012.1
20260508112516 76 0 5.0 15.0 0.00 0.00 0.00 54 1012.2
20260508112016 76 315 3.0 10.0 0.00 0.00 0.00 55 1012.2
20260508111516 76 270 4.0 12.0 0.00 0.00 0.00 54 1012.1
20260508111016 75 338 2.0 6.0 0.00 0.00 0.00 54 1012.2
20260508110516 75 293 7.0 13.0 0.00 0.00 0.00 53 1012.3
20260508110016 76 0 4.0 12.0 0.00 0.00 0.00 55 1012.4
20260508105516 75 293 4.0 11.0 0.00 0.00 0.00 55 1012.3
20260508105016 75 338 3.0 10.0 0.00 0.00 0.00 55 1012.2
20260508104516 75 270 4.0 10.0 0.00 0.00 0.00 56 1012.5
20260508104016 75 135 4.0 12.0 0.00 0.00 0.00 56 1012.4
20260508103556 74 90 6.0 11.0 0.00 0.00 0.00 56 1012.3
20260508103016 74 68 8.0 15.0 0.00 0.00 0.00 56 1012.3
20260508102516 74 68 8.0 16.0 0.00 0.00 0.00 56 1012.5
20260508102036 75 90 6.0 14.0 0.00 0.00 0.00 56 1012.4
20260508101516 75 68 5.0 12.0 0.00 0.00 0.00 57 1012.3
20260508101016 74 68 4.0 8.0 0.00 0.00 0.00 58 1012.3
20260508100516 73 68 5.0 10.0 0.00 0.00 0.00 59 1012.4
20260508100016 73 68 3.0 9.0 0.00 0.00 0.00 59 1012.6
20260508095536 72 68 3.0 5.0 0.00 0.00 0.00 62 1012.5
20260508095016 72 90 4.0 7.0 0.00 0.00 0.00 64 1012.5
20260508094516 72 90 4.0 10.0 0.00 0.00 0.00 64 1012.5
20260508094036 72 68 2.0 5.0 0.00 0.00 0.00 64 1012.5
20260508093516 71 90 2.0 5.0 0.00 0.00 0.00 64 1012.2
20260508093016 70 68 4.0 9.0 0.00 0.00 0.00 64 1012.1
20260508092516 70 135 2.0 7.0 0.00 0.00 0.00 67 1012.2
20260508092016 70 135 4.0 6.0 0.00 0.00 0.00 67 1012.1
20260508091516 70 113 5.0 7.0 0.00 0.00 0.00 68 1012.1
20260508091016 71 113 4.0 7.0 0.00 0.00 0.00 66 1012.1
20260508090516 70 113 4.0 7.0 0.00 0.00 0.00 67 1012.2
20260508090036 70 113 5.0 8.0 0.00 0.00 0.00 66 1012.3
20260508085516 71 113 4.0 9.0 0.00 0.00 0.00 65 1012.4
20260508085016 70 113 5.0 9.0 0.00 0.00 0.00 65 1012.4
20260508084516 70 135 4.0 6.0 0.00 0.00 0.00 66 1012.4
20260508084016 70 113 3.0 5.0 0.00 0.00 0.00 66 1012.2
20260508083516 70 113 3.0 5.0 0.00 0.00 0.00 69 1012.3
20260508083016 69 135 4.0 7.0 0.00 0.00 0.00 67 1012.2
20260508082516 69 135 2.0 5.0 0.00 0.00 0.00 70 1012.2
20260508082016 69 113 1.0 3.0 0.00 0.00 0.00 71 1012.2
20260508081516 69 113 2.0 4.0 0.00 0.00 0.00 73 1012.2
20260508081056 69 113 3.0 5.0 0.00 0.00 0.00 73 1012.2
20260508080516 69 113 2.0 4.0 0.00 0.00 0.00 74 1012.2
20260508080016 68 113 2.0 4.0 0.00 0.00 0.00 74 1012.2
20260508075516 69 113 2.0 4.0 0.00 0.00 0.00 74 1012.2
20260508075018 68 135 2.0 4.0 0.00 0.00 0.00 74 1012.2
20260508074518 68 113 1.0 2.0 0.00 0.00 0.00 76 1012.3
20260508074018 67 135 1.0 3.0 0.00 0.00 0.00 77 1012.1
20260508073538 67 135 1.0 3.0 0.00 0.00 0.00 78 1012.1
20260508073018 66 113 1.0 2.0 0.00 0.00 0.00 78 1012.0
20260508072518 66 113 1.0 2.0 0.00 0.00 0.00 79 1012.0
20260508072018 65 113 1.0 3.0 0.00 0.00 0.00 80 1012.1
20260508071638 65 113 2.0 3.0 0.00 0.00 0.00 80 1012.2
20260508071018 65 113 1.0 3.0 0.00 0.00 0.00 80 1012.2
20260508070518 65 90 1.0 3.0 0.00 0.00 0.00 80 1012.2
20260508070018 65 90 2.0 3.0 0.00 0.00 0.00 80 1012.2
20260508065518 65 113 2.0 4.0 0.00 0.00 0.00 80 1012.1
20260508065018 65 113 3.0 5.0 0.00 0.00 0.00 80 1012.0
20260508064538 65 113 3.0 5.0 0.00 0.00 0.00 80 1012.0
20260508064018 66 113 3.0 5.0 0.00 0.00 0.00 79 1011.9
20260508063518 66 135 3.0 5.0 0.00 0.00 0.00 79 1012.0
20260508063018 66 135 3.0 5.0 0.00 0.00 0.00 79 1012.0
20260508062538 66 113 3.0 5.0 0.00 0.00 0.00 80 1012.0
20260508062018 65 113 3.0 4.0 0.00 0.00 0.00 80 1011.9
20260508061518 65 113 2.0 4.0 0.00 0.00 0.00 80 1011.9
20260508061038 65 113 3.0 5.0 0.00 0.00 0.00 80 1011.9
20260508060517 65 113 3.0 4.0 0.00 0.00 0.00 79 1012.1
20260508060017 65 90 2.0 3.0 0.00 0.00 0.00 80 1011.9
20260508055518 65 113 2.0 3.0 0.00 0.00 0.00 79 1012.0
20260508055017 65 113 2.0 4.0 0.00 0.00 0.00 80 1011.9
20260508054517 65 113 1.0 2.0 0.00 0.00 0.00 79 1011.8
20260508054018 65 113 1.0 2.0 0.00 0.00 0.00 79 1011.7
20260508053518 65 0.0 2.0 0.00 0.00 0.00 79 1011.7
20260508053017 64 68 1.0 2.0 0.00 0.00 0.00 80 1011.6
20260508052517 64 0 1.0 2.0 0.00 0.00 0.00 80 1011.6
20260508052037 64 0 1.0 2.0 0.00 0.00 0.00 82 1011.4
20260508051518 63 338 1.0 2.0 0.00 0.00 0.00 83 1011.4
20260508051017 63 338 2.0 2.0 0.00 0.00 0.00 83 1011.4
20260508050517 62 293 1.0 2.0 0.00 0.00 0.00 84 1011.3
20260508050018 62 293 1.0 2.0 0.00 0.00 0.00 84 1011.3
20260508045538 62 293 1.0 2.0 0.00 0.00 0.00 83 1011.1
20260508045017 62 0.0 2.0 0.00 0.00 0.00 84 1011.0
20260508044518 62 225 1.0 2.0 0.00 0.00 0.00 84 1011.0
20260508044017 62 293 1.0 2.0 0.00 0.00 0.00 85 1010.9
20260508043517 62 293 1.0 2.0 0.00 0.00 0.00 85 1010.9
20260508043018 62 270 2.0 3.0 0.00 0.00 0.00 84 1010.9
20260508042517 62 270 2.0 3.0 0.00 0.00 0.00 84 1010.8
20260508042017 62 203 1.0 3.0 0.00 0.00 0.00 84 1010.7
20260508041517 62 158 1.0 2.0 0.00 0.00 0.00 84 1010.7
20260508041017 62 158 1.0 3.0 0.00 0.00 0.00 85 1010.6
20260508040517 62 113 2.0 5.0 0.00 0.00 0.00 85 1010.5
20260508040018 62 113 2.0 3.0 0.00 0.00 0.00 85 1010.4
20260508035517 63 113 2.0 4.0 0.00 0.00 0.00 84 1010.4
20260508035017 63 113 4.0 6.0 0.00 0.00 0.00 84 1010.4
20260508034517 63 113 3.0 5.0 0.00 0.00 0.00 84 1010.3
20260508034017 63 113 1.0 3.0 0.00 0.00 0.00 84 1010.3
20260508033517 63 113 2.0 3.0 0.00 0.00 0.00 84 1010.3
20260508033017 63 113 2.0 4.0 0.00 0.00 0.00 84 1010.1
20260508032617 63 113 3.0 4.0 0.00 0.00 0.00 84 1010.1
20260508032017 63 135 2.0 4.0 0.00 0.00 0.00 84 1009.9
20260508031537 63 113 1.0 3.0 0.00 0.00 0.00 84 1009.9